Cody, WY

6:35 AM MDT on March 28, 2017 (GMT -0600)
Yellowstone Regional

Weather History for KCOD - December, 2011

Change the Weather History Date:

Saturday, December 17, 2011

  Actual Average Record
Temperature  
Mean Temperature 24 °F -  
Max Temperature 33 °F 38 °F 62 °F (1980)
Min Temperature 15 °F 17 °F -31 °F (1964)
Degree Days  
Heating Degree Days 41    
Moisture  
Dew Point 16 °F    
Average Humidity 77    
Maximum Humidity 93    
Minimum Humidity 56    
Precipitation  
Precipitation 0.00 in - - ()
Sea Level Pressure  
Sea Level Pressure 30.25 in    
Wind  
Wind Speed 3 mph (North)    
Max Wind Speed 8 mph    
Max Gust Speed -    
Visibility 10 miles    
Events      
Averages and records for this station are not official NWS values.
T = Trace of Precipitation, MM = Missing Value Source: NWS Daily Summary

Daily Weather History Graph

Daily Weather History Graph

Search for Another Location

Airport or City:

Trip Planner

Search our weather history database for the weather conditions in past years. The results will help you decide how hot, cold, wet, or windy it might be!

Date:

Astronomy

Dec. 17, 2011 Rise Set
Actual Time 7:47 AM MST 4:37 PM MST
Civil Twilight 7:13 AM MST 5:10 PM MST
Nautical Twilight 6:36 AM MST 5:47 PM MST
Astronomical Twilight 6:01 AM MST 6:23 PM MST
Moon No Moon Rise 11:47 AM MST (12/17)
Length of Visible Light 9h 57m
Length of Day
8h 50m
Waning Gibbous, 53% of the Moon is Illuminated
Dec 17
Waning Gibbous
Dec 17
Last Quarter
Dec 24
New
Dec 31
First Quarter
Jan 9
Full

Hourly Weather History & Observations

Time (MST) Temp. Windchill Dew Point Humidity Pressure Visibility Wind Dir Wind Speed Gust Speed Precip Events Conditions
12:15 AM 21.2 °F 14.9 °F 12.2 °F 68% 30.29 in 10.0 mi North 4.6 mph - N/A   Clear
12:35 AM 19.4 °F - 15.8 °F 86% 30.28 in 10.0 mi Calm Calm - N/A   Clear
12:55 AM 19.4 °F 14.3 °F 15.8 °F 86% 30.28 in 10.0 mi North 3.5 mph - N/A   Clear
1:15 AM 19.4 °F - 14.0 °F 80% 30.27 in 10.0 mi Calm Calm - N/A   Clear
1:36 AM 17.6 °F 10.7 °F 12.2 °F 79% 30.27 in 10.0 mi NNW 4.6 mph - N/A   Clear
1:55 AM 15.8 °F 8.6 °F 12.2 °F 86% 30.28 in 10.0 mi WSW 4.6 mph - N/A   Clear
2:15 AM 17.6 °F 7.3 °F 12.2 °F 79% 30.29 in 10.0 mi South 8.1 mph - N/A   Clear
2:35 AM 19.4 °F 14.3 °F 17.6 °F 93% 30.29 in 10.0 mi South 3.5 mph - N/A   Clear
2:55 AM 17.6 °F - 14.0 °F 86% 30.28 in 10.0 mi Calm Calm - N/A   Clear
3:15 AM 17.6 °F 10.7 °F 12.2 °F 79% 30.28 in 10.0 mi North 4.6 mph - N/A   Clear
3:35 AM 17.6 °F - 12.2 °F 79% 30.29 in 10.0 mi Calm Calm - N/A   Clear
3:55 AM 17.6 °F - 14.0 °F 86% 30.28 in 10.0 mi Calm Calm - N/A   Clear
4:15 AM 15.8 °F - 12.2 °F 86% 30.28 in 10.0 mi Calm Calm - N/A   Clear
4:35 AM 19.4 °F - 12.2 °F 74% 30.27 in 10.0 mi Calm Calm - N/A   Clear
4:55 AM 17.6 °F - 10.4 °F 73% 30.27 in 10.0 mi Calm Calm - N/A   Clear
5:15 AM 15.8 °F 8.6 °F 10.4 °F 79% 30.27 in 10.0 mi SSW 4.6 mph - N/A   Clear
5:35 AM 15.8 °F 6.1 °F 12.2 °F 86% 30.27 in 10.0 mi SE 6.9 mph - N/A   Clear
5:55 AM 21.2 °F 14.9 °F 15.8 °F 80% 30.27 in 10.0 mi SSE 4.6 mph - N/A   Clear
6:15 AM 21.2 °F 16.4 °F 15.8 °F 80% 30.26 in 10.0 mi NW 3.5 mph - N/A   Clear
6:35 AM 24.8 °F - 15.8 °F 69% 30.26 in 10.0 mi Calm Calm - N/A   Clear
6:56 AM 24.8 °F 20.5 °F 15.8 °F 69% 30.27 in 10.0 mi NW 3.5 mph - N/A   Clear
7:15 AM 21.2 °F - 15.8 °F 80% 30.27 in 10.0 mi Calm Calm - N/A   Clear
7:35 AM 19.4 °F 12.8 °F 14.0 °F 80% 30.26 in 10.0 mi SSE 4.6 mph - N/A   Clear
7:55 AM 19.4 °F - 10.4 °F 68% 30.26 in 10.0 mi Calm Calm - N/A   Clear
8:15 AM 19.4 °F - 14.0 °F 80% 30.27 in 10.0 mi Calm Calm - N/A   Clear
8:35 AM 19.4 °F 14.3 °F 15.8 °F 86% 30.27 in 10.0 mi South 3.5 mph - N/A   Clear
9:15 AM 21.2 °F 14.9 °F 15.8 °F 80% 30.28 in 10.0 mi NNE 4.6 mph - N/A   Clear
9:35 AM 21.2 °F - 15.8 °F 80% 30.27 in 10.0 mi Calm Calm - N/A   Clear
9:55 AM 24.8 °F 19.1 °F 17.6 °F 74% 30.27 in 10.0 mi NNW 4.6 mph - N/A   Clear
10:15 AM 24.8 °F 20.5 °F 17.6 °F 74% 30.27 in 10.0 mi South 3.5 mph - N/A   Clear
10:35 AM 28.4 °F 23.3 °F 19.4 °F 69% 30.28 in 10.0 mi NW 4.6 mph - N/A   Clear
10:55 AM 26.6 °F - 19.4 °F 74% 30.28 in 10.0 mi Calm Calm - N/A   Clear
11:15 AM 30.2 °F 26.7 °F 19.4 °F 64% 30.27 in 10.0 mi NE 3.5 mph - N/A   Clear
11:35 AM 33.8 °F - 19.4 °F 56% 30.26 in 10.0 mi Calm Calm - N/A   Clear
12:15 PM 28.4 °F 21.2 °F 17.6 °F 64% 30.25 in 10.0 mi North 6.9 mph - N/A   Clear
12:35 PM 28.4 °F 22.2 °F 17.6 °F 64% 30.24 in 10.0 mi North 5.8 mph - N/A   Clear
1:15 PM - - - N/A% 30.22 in 10.0 mi NNW 4.6 mph - N/A   Clear
1:35 PM - - - N/A% 30.21 in 10.0 mi NNW 4.6 mph - N/A   Clear
1:55 PM - - - N/A% 30.21 in 10.0 mi Calm Calm - N/A   Clear
2:15 PM - - - N/A% 30.20 in 10.0 mi North 4.6 mph - N/A   Clear
2:35 PM - - - N/A% 30.20 in 10.0 mi NNE 5.8 mph - N/A   Clear
2:55 PM - - - N/A% 30.20 in 10.0 mi NNE 5.8 mph - N/A   Clear
3:35 PM - - - N/A% 30.22 in 10.0 mi North 6.9 mph - N/A   Clear
3:55 PM 28.4 °F 23.3 °F 19.4 °F 69% 30.21 in 10.0 mi NNE 4.6 mph - N/A   Clear
4:15 PM 28.4 °F - 19.4 °F 69% 30.21 in 10.0 mi Calm Calm - N/A   Clear
4:35 PM 26.6 °F 18.2 °F 17.6 °F 69% 30.21 in 10.0 mi SSE 8.1 mph - N/A   Clear
5:15 PM 24.8 °F 19.1 °F 17.6 °F 74% 30.20 in 10.0 mi NNE 4.6 mph - N/A   Clear
5:35 PM 24.8 °F 17.9 °F 19.4 °F 80% 30.18 in 10.0 mi SSE 5.8 mph - N/A   Clear
5:55 PM 26.6 °F - 21.2 °F 80% 30.18 in 10.0 mi Calm Calm - N/A   Clear
6:15 PM 23.0 °F - 17.6 °F 80% 30.18 in 10.0 mi Calm Calm - N/A   Clear
6:35 PM 23.0 °F 18.4 °F 17.6 °F 80% 30.18 in 10.0 mi North 3.5 mph - N/A   Clear
6:55 PM 21.2 °F 12.6 °F 17.6 °F 86% 30.17 in 10.0 mi NNE 6.9 mph - N/A   Clear
7:15 PM 21.2 °F 14.9 °F 17.6 °F 86% 30.18 in 10.0 mi NNE 4.6 mph - N/A   Clear
7:35 PM 21.2 °F 14.9 °F 17.6 °F 86% 30.17 in 10.0 mi NE 4.6 mph - N/A   Clear
7:55 PM 21.2 °F - 17.6 °F 86% 30.16 in 10.0 mi Calm Calm - N/A   Clear
8:15 PM 19.4 °F - 14.0 °F 80% 30.15 in 10.0 mi Calm Calm - N/A   Clear
8:35 PM 19.4 °F - 15.8 °F 86% 30.14 in 10.0 mi Calm Calm - N/A   Clear
8:55 PM 19.4 °F - 15.8 °F 86% 30.12 in 10.0 mi Calm Calm - N/A   Clear
9:15 PM 17.6 °F 9.3 °F 12.2 °F 79% 30.12 in 10.0 mi NNW 5.8 mph - N/A   Clear
9:35 PM 17.6 °F - 15.8 °F 93% 30.11 in 10.0 mi Calm Calm - N/A   Clear
9:55 PM 19.4 °F 14.3 °F 15.8 °F 86% 30.10 in 10.0 mi North 3.5 mph - N/A   Clear
10:15 PM 19.4 °F 11.5 °F 15.8 °F 86% 30.10 in 10.0 mi NNW 5.8 mph - N/A   Clear
10:35 PM 19.4 °F 11.5 °F 15.8 °F 86% 30.08 in 10.0 mi NNE 5.8 mph - N/A   Clear
10:55 PM 19.4 °F 9.5 °F 14.0 °F 80% 30.09 in 10.0 mi North 8.1 mph - N/A   Clear
11:15 PM 19.4 °F 9.5 °F 15.8 °F 86% 30.09 in 10.0 mi NNE 8.1 mph - N/A   Clear
11:35 PM 19.4 °F 10.4 °F 15.8 °F 86% 30.08 in 10.0 mi North 6.9 mph - N/A   Clear
11:55 PM 19.4 °F 10.4 °F 14.0 °F 80% 30.08 in 10.0 mi NNE 6.9 mph - N/A   Clear